Detroit Metro, MI

2:35 PM EDT on March 23, 2017 (GMT -0400)
Detroit Metro Wayne County

Weather History for KDTW - March, 2013

Change the Weather History Date:

Saturday, March 2, 2013

  Actual Average Record
Temperature  
Mean Temperature 28 °F 32 °F  
Max Temperature 30 °F 40 °F 63 °F (1991)
Min Temperature 25 °F 24 °F -4 °F (1978)
Degree Days  
Heating Degree Days 37 33  
Month to date heating degree days 73 66  
Since 1 July heating degree days 4358 4619  
Cooling Degree Days 0 0  
Month to date cooling degree days 0 0  
Year to date cooling degree days 0 0  
Moisture  
Dew Point 18 °F    
Average Humidity 69    
Maximum Humidity 75    
Minimum Humidity 63    
Precipitation  
Precipitation 0.01 in 0.08 in 0.82 in (1976)
Month to date precipitation 0.01 0.15  
Year to date precipitation 6.29 4.13  
Snow  
Snow 0.10 in 0.30 in 2.70 in (1982)
Month to date snowfall 0.1 0.6  
Since 1 July snowfall 44.6 34.5  
Snow Depth 2.00 in    
Sea Level Pressure  
Sea Level Pressure 30.07 in    
Wind  
Wind Speed 9 mph (NW)    
Max Wind Speed 15 mph    
Max Gust Speed 20 mph    
Visibility 7 miles    
Events Snow    
T = Trace of Precipitation, MM = Missing Value Source: NWS Daily Summary

Daily Weather History Graph

Daily Weather History Graph

Search for Another Location

Airport or City:

Trip Planner

Search our weather history database for the weather conditions in past years. The results will help you decide how hot, cold, wet, or windy it might be!

Date:

Astronomy

Mar. 02, 2013 Rise Set
Actual Time 7:06 AM EST 6:24 PM EST
Civil Twilight 6:38 AM EST 6:53 PM EST
Nautical Twilight 6:06 AM EST 7:25 PM EST
Astronomical Twilight 5:33 AM EST 7:58 PM EST
Moon No Moon Rise 9:27 AM EST (3/2)
Length of Visible Light 12h 14m
Length of Day
11h 18m
Waning Gibbous, 74% of the Moon is Illuminated
Mar 2
Waning Gibbous
Mar 4
Last Quarter
Mar 11
New
Mar 19
First Quarter
Mar 27
Full

Hourly Weather History & Observations

Time (EST) Temp. Windchill Dew Point Humidity Pressure Visibility Wind Dir Wind Speed Gust Speed Precip Events Conditions
12:53 AM 26.1 °F 18.4 °F 18.0 °F 71% 30.09 in 9.0 mi WNW 6.9 mph - 0.00 in Snow Light Snow
1:53 AM 27.0 °F 17.3 °F 19.0 °F 72% 30.09 in 9.0 mi NW 10.4 mph - 0.00 in Snow Light Snow
2:53 AM 26.1 °F 16.8 °F 18.0 °F 71% 30.08 in 9.0 mi NW 9.2 mph - 0.00 in Snow Light Snow
3:53 AM 26.6 °F 18.2 °F 17.6 °F 69% 30.05 in 9.0 mi WNW 8.1 mph - N/A Snow Light Snow
4:53 AM 26.1 °F 18.4 °F 18.0 °F 71% 30.07 in 9.0 mi NW 6.9 mph - 0.00 in Snow Light Snow
5:53 AM 26.1 °F 18.4 °F 18.0 °F 71% 30.07 in 9.0 mi NNW 6.9 mph - 0.00 in Snow Light Snow
6:53 AM 26.6 °F 15.7 °F 17.6 °F 69% 30.05 in 9.0 mi NNW 12.7 mph - N/A Snow Light Snow
7:53 AM 26.1 °F 17.6 °F 19.0 °F 75% 30.09 in 8.0 mi NNW 8.1 mph - 0.00 in Snow Light Snow
8:15 AM 26.6 °F 17.5 °F 17.6 °F 69% 30.06 in 6.0 mi NW 9.2 mph - 0.00 in Snow Light Snow
8:53 AM 26.1 °F 16.2 °F 18.0 °F 71% 30.09 in 5.0 mi NW 10.4 mph - 0.00 in Snow Light Snow
9:04 AM 26.6 °F 18.2 °F 19.4 °F 74% 30.07 in 6.0 mi NW 8.1 mph - 0.00 in Snow Light Snow
9:45 AM 26.6 °F 18.2 °F 19.4 °F 74% 30.06 in 2.5 mi NNW 8.1 mph - 0.00 in Snow Light Snow
9:53 AM 26.1 °F 17.6 °F 19.0 °F 75% 30.09 in 2.5 mi NW 8.1 mph - 0.00 in Snow Light Snow
10:12 AM 26.6 °F 18.2 °F 19.4 °F 74% 30.06 in 4.0 mi NW 8.1 mph - 0.00 in Snow Light Snow
10:53 AM 27.0 °F 17.3 °F 19.0 °F 72% 30.09 in 6.0 mi NW 10.4 mph - 0.00 in Snow Light Snow
11:53 AM 27.0 °F 18.0 °F 19.0 °F 72% 30.09 in 4.0 mi NW 9.2 mph - 0.00 in Snow Light Snow
12:53 PM 28.9 °F 20.4 °F 19.0 °F 67% 30.07 in 6.0 mi NW 9.2 mph - 0.00 in Snow Light Snow
1:41 PM 28.4 °F 18.0 °F 17.6 °F 64% 30.04 in 6.0 mi NNW 12.7 mph - 0.00 in Snow Light Snow
1:53 PM 28.9 °F 19.2 °F 18.0 °F 64% 30.06 in 5.0 mi NW 11.5 mph 19.6 mph 0.00 in Snow Light Snow
2:14 PM 28.4 °F 18.0 °F 17.6 °F 64% 30.04 in 7.0 mi NNW 12.7 mph 19.6 mph 0.00 in Snow Light Snow
2:53 PM 28.0 °F 18.1 °F 18.0 °F 66% 30.06 in 7.0 mi NW 11.5 mph - 0.00 in Snow Light Snow
3:53 PM 27.0 °F 17.3 °F 18.0 °F 69% 30.07 in 7.0 mi NNW 10.4 mph - 0.00 in Snow Light Snow
4:53 PM 27.0 °F 18.7 °F 17.1 °F 66% 30.07 in 9.0 mi NNW 8.1 mph - 0.00 in Snow Light Snow
5:53 PM 26.1 °F 16.8 °F 17.1 °F 69% 30.09 in 9.0 mi North 9.2 mph - 0.00 in Snow Light Snow
6:53 PM 26.1 °F 17.6 °F 17.1 °F 69% 30.09 in 9.0 mi NNW 8.1 mph - 0.00 in Snow Light Snow
7:53 PM 26.6 °F 16.8 °F 15.8 °F 64% 30.06 in 9.0 mi North 10.4 mph - N/A Snow Light Snow
8:53 PM 26.1 °F 15.6 °F 15.1 °F 63% 30.09 in 9.0 mi NW 11.5 mph - 0.00 in Snow Light Snow
9:53 PM 25.0 °F 16.3 °F 12.9 °F 60% 30.09 in 9.0 mi North 8.1 mph - 0.00 in   Overcast
10:53 PM 25.0 °F - 15.1 °F 66% 30.09 in 9.0 mi Calm Calm - 0.00 in Snow Light Snow
11:53 PM 25.0 °F 18.1 °F 17.1 °F 72% 30.08 in 9.0 mi WNW 5.8 mph - 0.00 in Snow Light Snow